Weather History for KBKL - January, 2015

Change the Weather History Date:

Friday, January 9, 2015

  Actual Average Record
Temperature  
Mean Temperature 14 °F -  
Max Temperature 21 °F 33 °F 59 °F (2008)
Min Temperature 6 °F 23 °F 6 °F (2015)
Degree Days  
Heating Degree Days 52    
Moisture  
Dew Point 8 °F    
Average Humidity 71    
Maximum Humidity 86    
Minimum Humidity 57    
Precipitation  
Precipitation 0.00 in - - ()
Sea Level Pressure  
Sea Level Pressure 30.03 in    
Wind  
Wind Speed 23 mph (SW)    
Max Wind Speed 38 mph    
Max Gust Speed 51 mph    
Visibility 5 miles    
Events Snow    
Averages and records for this station are not official NWS values.
T = Trace of Precipitation, MM = Missing Value Source: NWS Daily Summary

Daily Weather History Graph

Daily Weather History Graph

Search for Another Location

Airport or City:

Trip Planner

Search our weather history database for the weather conditions in past years. The results will help you decide how hot, cold, wet, or windy it might be!

Date:

Astronomy

Jan. 09, 2015 Rise Set
Actual Time 7:52 AM EST 5:15 PM EST
Civil Twilight 7:21 AM EST 5:45 PM EST
Nautical Twilight 6:47 AM EST 6:20 PM EST
Astronomical Twilight 6:14 AM EST 6:53 PM EST
Moon 9:51 PM EST (1/9) 10:05 AM EST (1/9)
Length of Visible Light 10h 24m
Length of Day
9h 22m
Waning Gibbous, 82% of the Moon is Illuminated
Jan 9
Waning Gibbous
Jan 13
Last Quarter
Jan 20
New
Jan 26
First Quarter
Feb 3
Full

Hourly Weather History & Observations

Time (EST) Temp. Windchill Dew Point Humidity Pressure Visibility Wind Dir Wind Speed Gust Speed Precip Events Conditions
12:08 AM 18.0 °F 1.7 °F 10.0 °F 71% 29.83 in 3.0 mi SSW 19.6 mph 27.6 mph 0.00 in Snow Light Snow
12:12 AM 18.0 °F 1.7 °F 10.0 °F 71% 29.83 in 2.5 mi SSW 19.6 mph 27.6 mph 0.00 in Snow Light Snow
12:53 AM 18.0 °F 2.2 °F 10.9 °F 74% 29.86 in 1.5 mi SSW 18.4 mph 25.3 mph 0.00 in Snow Light Snow
1:08 AM 18.0 °F 2.2 °F 12.0 °F 78% 29.82 in 0.8 mi SSW 18.4 mph 28.8 mph 0.00 in Snow Light Snow
1:18 AM 18.0 °F 2.6 °F 12.0 °F 78% 29.82 in 1.0 mi SSW 17.3 mph 27.6 mph 0.00 in Snow Light Snow
1:53 AM 18.0 °F 1.7 °F 12.0 °F 78% 29.85 in 1.8 mi SSW 19.6 mph 29.9 mph 0.00 in Snow Light Snow
2:03 AM 18.0 °F 2.2 °F 12.0 °F 78% 29.81 in 2.0 mi SSW 18.4 mph 25.3 mph 0.00 in Snow Light Snow
2:19 AM 18.0 °F 2.2 °F 12.0 °F 78% 29.82 in 1.2 mi SSW 18.4 mph 34.5 mph 0.00 in Snow Light Snow
2:39 AM 19.0 °F 2.4 °F 12.0 °F 74% 29.83 in 3.0 mi SSW 21.9 mph 35.7 mph 0.00 in Snow Light Snow
2:53 AM 19.0 °F 2.7 °F 12.9 °F 77% 29.86 in 2.5 mi SSW 20.7 mph 31.1 mph 0.00 in Snow Light Snow
3:36 AM 19.0 °F 2.4 °F 12.9 °F 77% 29.83 in 2.0 mi SSW 21.9 mph 35.7 mph 0.00 in Snow Light Snow
3:53 AM 19.0 °F 2.4 °F 12.9 °F 77% 29.87 in 2.0 mi SSW 21.9 mph 33.4 mph 0.00 in Snow Light Snow
4:03 AM 19.0 °F 3.2 °F 12.9 °F 77% 29.83 in 1.5 mi SSW 19.6 mph 32.2 mph 0.00 in Snow Light Snow
4:53 AM 19.9 °F 3.5 °F 14.0 °F 78% 29.88 in 1.2 mi SW 21.9 mph 31.1 mph 0.00 in Snow Light Snow
5:19 AM 19.9 °F 2.8 °F 15.1 °F 81% 29.86 in 0.8 mi SW 24.2 mph - 0.00 in Snow Light Snow
5:33 AM 19.9 °F 3.2 °F 15.1 °F 81% 29.87 in 1.2 mi WSW 23.0 mph - 0.00 in Snow Light Snow
5:49 AM 19.4 °F 2.1 °F 15.8 °F 86% 29.88 in 2.0 mi WSW 24.2 mph 32.2 mph 0.00 in Snow Light Snow
5:53 AM 19.9 °F 1.8 °F 15.1 °F 81% 29.91 in 2.5 mi WSW 27.6 mph 34.5 mph 0.00 in Snow Light Snow
5:58 AM 21.0 °F 1.4 °F 14.0 °F 74% 29.88 in 1.8 mi WSW 35.7 mph 40.3 mph 0.00 in Snow Light Snow
6:19 AM 19.9 °F -0.6 °F 14.0 °F 78% 29.89 in 0.5 mi West 38.0 mph 46.0 mph 0.00 in Snow Snow
6:35 AM 19.9 °F 1.0 °F 15.1 °F 81% 29.91 in 0.5 mi West 31.1 mph 42.6 mph 0.00 in Snow Snow
6:39 AM 19.9 °F 0.4 °F 15.1 °F 81% 29.91 in 0.5 mi West 33.4 mph 42.6 mph 0.00 in Snow Snow
6:53 AM 19.9 °F 0.2 °F 15.1 °F 81% 29.96 in 0.5 mi West 34.5 mph 43.7 mph 0.00 in Snow Snow
7:15 AM 19.0 °F -0.5 °F 14.0 °F 81% 29.94 in 1.2 mi West 32.2 mph 50.6 mph 0.00 in Snow Light Snow
7:43 AM 18.0 °F -2.6 °F 12.9 °F 81% 29.97 in 0.2 mi West 34.5 mph 46.0 mph 0.00 in Snow Heavy Snow
7:53 AM 18.0 °F -1.7 °F 10.0 °F 71% 30.01 in 0.5 mi West 31.1 mph 41.4 mph 0.00 in Snow Snow
7:57 AM 18.0 °F -2.3 °F 9.0 °F 68% 29.98 in 7.0 mi West 33.4 mph 40.3 mph 0.00 in Snow Light Snow
8:53 AM 18.0 °F -1.4 °F 9.0 °F 68% 30.07 in 10.0 mi WSW 29.9 mph 38.0 mph 0.00 in   Overcast
9:14 AM 18.0 °F -1.4 °F 9.0 °F 68% 30.05 in 10.0 mi West 29.9 mph 41.4 mph N/A   Overcast
9:53 AM 18.0 °F 1.3 °F 8.1 °F 65% 30.12 in 10.0 mi WSW 20.7 mph 28.8 mph N/A   Overcast
10:53 AM 17.1 °F -1.0 °F 8.1 °F 68% 30.14 in 10.0 mi WSW 24.2 mph 29.9 mph N/A   Overcast
11:53 AM 18.0 °F 2.2 °F 8.1 °F 65% 30.13 in 10.0 mi WSW 18.4 mph - 0.00 in   Overcast
12:30 PM 17.1 °F -0.3 °F 7.0 °F 65% 30.10 in 10.0 mi WSW 21.9 mph - N/A   Overcast
12:45 PM 17.1 °F -0.3 °F 6.1 °F 62% 30.09 in 10.0 mi SW 21.9 mph - N/A   Overcast
12:53 PM 18.0 °F 0.9 °F 6.1 °F 60% 30.13 in 10.0 mi WSW 21.9 mph - N/A   Overcast
1:53 PM 18.0 °F -0.2 °F 5.0 °F 57% 30.14 in 10.0 mi SW 25.3 mph - N/A   Overcast
2:53 PM 16.0 °F -2.1 °F 3.9 °F 59% 30.17 in 10.0 mi SW 23.0 mph 31.1 mph N/A   Overcast
3:53 PM 15.1 °F -3.7 °F 3.0 °F 59% 30.19 in 10.0 mi WSW 24.2 mph 35.7 mph N/A   Mostly Cloudy
4:53 PM 12.9 °F -7.3 °F 1.9 °F 62% 30.21 in 10.0 mi SW 26.5 mph 31.1 mph N/A   Mostly Cloudy
5:53 PM 12.0 °F -7.3 °F -0.0 °F 59% 30.25 in 10.0 mi WSW 23.0 mph 33.4 mph N/A   Mostly Cloudy
6:53 PM 10.0 °F -11.1 °F -0.0 °F 64% 30.28 in 10.0 mi SW 26.5 mph 31.1 mph N/A   Scattered Clouds
7:03 PM 10.0 °F -10.0 °F -0.0 °F 64% 30.26 in 10.0 mi SW 23.0 mph 31.1 mph N/A   Mostly Cloudy
7:36 PM 9.0 °F -13.0 °F -0.9 °F 64% 30.27 in 10.0 mi SW 27.6 mph 34.5 mph N/A   Mostly Cloudy
7:53 PM 9.0 °F -12.6 °F -0.9 °F 64% 30.32 in 10.0 mi SW 26.5 mph 33.4 mph N/A   Mostly Cloudy
8:53 PM 7.0 °F -15.3 °F -2.9 °F 64% 30.35 in 10.0 mi SW 26.5 mph 35.7 mph N/A   Mostly Cloudy
9:08 PM 7.0 °F -13.6 °F -2.9 °F 64% 30.32 in 10.0 mi SW 21.9 mph 33.4 mph N/A   Mostly Cloudy
9:53 PM 7.0 °F -14.9 °F -2.9 °F 64% 30.37 in 10.0 mi WSW 25.3 mph 31.1 mph N/A   Overcast
10:53 PM 6.1 °F -14.3 °F -2.9 °F 67% 30.39 in 10.0 mi SW 20.7 mph 26.5 mph N/A   Overcast
11:53 PM 6.1 °F -14.3 °F -5.1 °F 60% 30.40 in 10.0 mi SW 20.7 mph - N/A   Overcast